OPS 5644

导读

OPS 5644是美国于1977年6月5日发射的军用侦察卫星,隶属于美国国家侦察局(NRO),归属海军海洋监视系统(NOSS)计划。作为第一代“白云”系列电子侦察卫星的组成部分,它主要承担对海上舰船的信号情报收集与监测任务,运行在近地轨道,服役期间为美国海军提供了关键的海洋目标态势感知能力,是冷战时期美军空间侦察体系的重要一环。

Basic Information
目录编号:
10033
目录名称:
OPS 5644
国际标识:
1977-044A
轨道中心:
EARTH
卫星名称:
OPS 5644
卫星全名:
--
卫星状态:
在轨 (已飞行17936 天)
发射日期:
1977-06-05 UTC
国别 :
美国 (US)
星等 :
--
Orbit Information
数据来源 国际轨道数据 AOE轨道数据
星历时间 2026-07-14T11:10:40+0800
5小时前
查看轨道信息
2026-07-10T00:00:00+0800
4天前
查看轨道信息
半长轴 7164.938km 7164.954km
偏心率 0.003841 0.0038216
轨道倾角 99.116° 99.116°
近地点辐角 149.016° 161.682°
升交点赤经 244.868° 240.182°
平近点角 211.330° 238.230°
近地点 759.28km 759.435km
远地点 814.322km 814.199km
周期 100.595分钟 100.596分钟
每日圈数 14.314762 14.314715
Detailed Information
使用方式:
暂无
2D Orbit Map
3D Orbit Map
Orbit Altitude Analysis Chart
Orbit Inclination Analysis Chart
Orbit Comprehensive Analysis Chart
View Comprehensive Chart